Location: Songkhla
(7.2000°N, 100.6000°E)
Time: 10:01:52
(UTC+07:00)

ISS - Visible Passes

Search period start: 24 September 2017 00:00
Search period end: 04 October 2017 00:00
Orbit: 401 x 407 km, 51.6° (Epoch: 24 September)

Date Brightness Start Highest point End Pass type
(mag) Time Alt. Az. Time Alt. Az. Time Alt. Az.
24 Sep -0.7 04:28:09 10° NNE 04:29:30 12° NE 04:30:50 10° ENE visible
25 Sep -3.8 05:11:42 22° NW 05:13:35 60° SW 05:16:48 10° SSE visible
26 Sep -1.4 04:22:58 23° ESE 04:22:58 23° ESE 04:24:26 10° SE visible
27 Sep -1.4 05:06:48 12° SSW 05:06:48 12° SSW 05:07:17 10° SSW visible
